Location: Asbacherhof
(48.8543°N, 10.7903°E)
Time: 11:54:58
(UTC+00:00)

Nadezhda 1 Rocket - Visible Passes

Search period start: 26 September 2022 00:00
Search period end: 06 October 2022 00:00
Orbit: 941 x 1005 km, 83.0° (Epoch: 26 September)

Date Brightness Start Highest point End Pass type
(mag) Time Alt. Az. Time Alt. Az. Time Alt. Az.
26 Sep 5.7 21:28:50 10° N 21:31:38 25° NNE 21:31:38 25° NNE visible
26 Sep 6.1 23:14:19 10° NNW 23:16:14 19° NNW 23:16:14 19° NNW visible
27 Sep 6.1 20:10:00 10° NNE 20:11:28 12° NE 20:11:28 12° NE visible
27 Sep 5.7 21:53:21 10° N 21:56:04 27° N 21:56:04 27° N visible
27 Sep 6.4 23:39:40 10° NNW 23:40:40 14° NW 23:40:40 14° NW visible
28 Sep 5.9 20:33:33 10° NNE 20:35:55 18° NE 20:35:55 18° NE visible
28 Sep 5.8 22:18:05 10° NNW 22:20:31 25° NNW 22:20:31 25° NNW visible
29 Sep 5.7 20:57:44 10° N 21:00:22 23° NNE 21:00:22 23° NNE visible
29 Sep 6.1 22:43:00 10° NNW 22:44:58 21° NNW 22:44:58 21° NNW visible
30 Sep 6.1 19:39:42 10° NE 19:40:14 11° NE 19:40:14 11° NE visible
30 Sep 5.7 21:22:11 10° N 21:24:50 26° N 21:24:50 26° N visible
30 Sep 6.3 23:08:12 10° NNW 23:09:26 15° NW 23:09:26 15° NW visible
01 Oct 5.9 20:02:38 10° NNE 20:04:42 16° NE 20:04:42 16° NE visible
01 Oct 5.8 21:46:51 10° N 21:49:19 26° N 21:49:19 26° N visible
02 Oct 5.7 20:26:40 10° N 20:29:11 21° NNE 20:29:11 21° NNE visible
02 Oct 6.0 22:11:42 10° NNW 22:13:47 22° NNW 22:13:47 22° NNW visible
03 Oct 5.6 20:51:03 10° N 20:53:40 25° NNE 20:53:40 25° NNE visible
03 Oct 6.3 22:36:47 10° NNW 22:38:17 17° NW 22:38:17 17° NW visible
04 Oct 5.9 19:31:49 10° NNE 19:33:33 14° NE 19:33:33 14° NE visible
04 Oct 5.7 21:15:38 10° N 21:18:09 26° N 21:18:09 26° N visible
04 Oct 6.6 23:02:18 10° NW 23:02:46 11° NW 23:02:46 11° NW visible
05 Oct 5.7 19:55:38 10° N 19:58:04 19° NNE 19:58:04 19° NNE visible
05 Oct 5.9 21:40:25 10° NNW 21:42:40 24° NNW 21:42:40 24° NNW visible
